Regional Weather Roundup
Issued by NWS Columbia, SC

Home | Current Version | Previous Version | Text Only | Print | Product List | Glossary On
Versions: 1 2 3 4 5 6 7 8 9 10 11 12 13 14 15 16 17 18 19 20 21 22 23 24 25 26 27 28
000
ASUS42 KCAE 201310
RWRCAE
REGIONAL WEATHER ROUNDUP
NATIONAL WEATHER SERVICE COLUMBIA SC
900 AM EDT FRI OCT 20 2017

NOTE: "FAIR" INDICATES FEW OR NO CLOUDS BELOW 12,000 FEET WITH NO
SIGNIFICANT WEATHER AND/OR OBSTRUCTIONS TO VISIBILITY.

NOT ALL STATIONS ARE QUALITY CONTROLLED BY THE NATIONAL
WEATHER SERVICE. USE DATA WITH CAUTION...ESPECIALLY
DEWPOINT OBSERVATIONS.

SCZ001>056-GAZ040-063>065-077-201400-
...UPSTATE SOUTH CAROLINA...

CITY           SKY/WX    TMP DP  RH WIND       PRES   REMARKS
ANDERSON       PTSUNNY   50  48  93 CALM      30.29R
LIBERTY        SUNNY     44  44 100 CALM      30.28R
SPARTANBURG    SUNNY     50  46  87 CALM      30.29R
CLEMSON        SUNNY     54  53  97 CALM      30.29R
GREENVILLE     SUNNY     53  46  77 CALM      30.29R
GREENWOOD      SUNNY     48  46  93 CALM      30.30R
GREER          SUNNY     52  49  89 CALM      30.29R
ROCK HILL      SUNNY     52  51  97 N3        30.30R
CHESTER        SUNNY     50  48  93 CALM      30.30R
LAURENS        SUNNY     50  46  87 CALM      30.28R


...CENTRAL SOUTH CAROLINA...

CITY           SKY/WX    TMP DP  RH WIND       PRES   REMARKS
COLUMBIA APT   MOSUNNY   49  48  97 CALM      30.28R
COLUMBIA OWENS SUNNY     53  50  89 CALM      30.30R
MCENTIRE ANGB  SUNNY     50  50 100 CALM      30.28R
ORANGEBURG     SUNNY     52  48  86 CALM      30.28R
SUMTER SHAW    SUNNY     57  49  76 CALM      30.26R
NEWBERRY       SUNNY     46  45  93 CALM      30.32R
AIKEN          FAIR      50  46  87 CALM      30.31R
BARNWELL         N/A     54  48  82 CALM      30.28R
MANNING        HAZE      50  43  76 MISG      30.28R VSB<1/4
CAMDEN         FAIR      52  46  82 CALM      30.30R
LANCASTER      SUNNY     46  46 100 CALM      30.30R
WINNSBORO      SUNNY     54  46  76 N3        30.28R


...EASTERN AND COASTAL SOUTH CAROLINA...

CITY           SKY/WX    TMP DP  RH WIND       PRES   REMARKS
MYRTLE BEACH   SUNNY     62  54  74 N5        30.28R
N MYRTLE BCH   SUNNY     62  55  77 NE3       30.26R
CONWAY         FAIR      55  55 100 CALM      30.27R
MARION         FAIR      54  50  87 CALM      30.28R
HARTSVILLE     FAIR      55  46  71 CALM      30.29R
FLORENCE       SUNNY     57  49  74 CALM      30.28R
DARLINGTON     SUNNY     52  47  83 CALM      30.29R
CHARLESTON APT SUNNY     64  58  80 NE7       30.26R
MOUNT PLEASANT FAIR      63  55  77 N6        30.26R
WALTERBORO     SUNNY     55  52  88 CALM      30.28R
BEAUFORT       SUNNY     63  60  90 NE6       30.26R


...EASTERN GEORGIA...

CITY           SKY/WX    TMP DP  RH WIND       PRES   REMARKS
AUGUSTA BUSH F SUNNY     52  48  86 CALM      30.29R
AUGUSTA DANIEL SUNNY     57  46  66 VRB3      30.29R
THOMSON        SUNNY     45  42  89 CALM      30.34R
CLAXTON        FAIR      52  52  98 CALM      30.27R
SYLVANIA       SUNNY     55  53  94 CALM      30.28R
STATESBORO     SUNNY     55  52  90 CALM      30.27R
SAVANNAH       MOSUNNY   61  57  87 N5        30.26R


...SOUTHERN NORTH CAROLINA...

CITY           SKY/WX    TMP DP  RH WIND       PRES   REMARKS
CHARLOTTE      MOSUNNY   54  51  90 N5        30.31R
MONROE         SUNNY     52  50  93 CALM      30.29R
WADESBORO      SUNNY     45  41  88 CALM      30.29R
RUTHERFORDTON  SUNNY     49  46  88 NW5       30.30R
ASHEVILLE      SUNNY     46  40  79 N6        30.36R

$$




USA.gov is the U.S. government's official web portal to all federal, state and local government web resources and services.